Location: Lac Lasalle
(46.0398°N, 74.1576°W)
Time: 14:07:55
(UTC-05:00)

SEEDS - Pass Details

Date: 19 December 2019
Orbit: 586 x 603 km, 97.5° (Epoch: 28 January)

Event Time Altitude Azimuth Distance (km) Brightness Sun altitude
Rises 06:44:12 0° 2° (N) 2,861 ? -8.4°
Reaches altitude 10° 06:46:36 10° 351° (N) 1,955 ? -8.0°
Maximum altitude 06:50:12 28° 293° (WNW) 1,157 ? -7.5°
Drops below altitude 10° 06:53:47 10° 235° (SW) 1,947 ? -6.9°
Sets 06:56:11 0° 223° (SW) 2,846 ? -6.6°
